#timestamp,LO_Frequency,Hit 
1597633215.6,286047002.7,N
1597633235.5,286047000.2,N
1597633255.3,286047000.1,N
1597633275.1,286046999.9,N
1597633295.9,286047000.0,N
1597633315.7,286047000.3,N
1597633335.5,286047000.2,N
1597633355.4,286046999.8,N
1597633375.2,286047001.9,N
1597633395.0,286047000.4,N
1597633395.9,286047000.4,N
1597633415.8,286046999.9,N
1597633435.6,286047002.4,N
1597633455.4,286047002.0,N
1597633475.3,286047000.2,N
1597633495.1,286046999.7,N
1597633515.8,286047001.5,N
1597633535.7,286047002.4,N
1597633555.5,286047000.5,N
1597633575.3,286047002.4,N
1597633595.2,286047002.1,N
1597633615.9,286047002.1,N
1597633635.7,286047000.1,N
1597633655.6,286047001.5,N
1597633675.4,286047002.3,N
1597633695.2,286047001.8,N
1597633715.1,286047002.2,N
1597633716.0,286047002.2,N
1597633735.8,286047001.3,N
1597633755.6,286047002.1,N
1597633775.5,286046999.8,N
1597633795.3,286047001.9,N
1597633815.1,286047002.1,N
1597633835.9,286046999.7,N
1597633855.7,286047002.1,N
1597633875.5,286047002.4,N
1597633895.4,286047002.7,N
1597633915.2,286047001.5,N
1597633935.0,286047002.6,N
1597633935.9,286047002.6,N
1597633955.8,286047000.1,N
1597633975.6,286047001.8,N
1597633995.4,286047001.7,N
1597634015.3,286047001.7,N
1597634035.1,286047002.2,N
1597634036.0,286047002.2,N
1597634055.8,286047002.6,P
1597634075.7,286047000.0,N
1597634095.5,286047000.1,N
1597634115.3,286047000.0,N
1597634135.2,286047000.6,N
1597634155.0,286047000.9,N
1597634155.9,286047000.9,N
1597634175.7,286046999.7,N
1597634195.6,286046999.9,N
1597634215.4,286047000.2,N
1597634235.2,286047000.4,N
1597634255.1,286047000.6,N
1597634256.0,286047000.6,N
1597634275.8,286047000.1,N
1597634295.6,286047000.1,N
1597634315.5,286047000.6,N
1597634335.3,286047000.4,N
1597634355.1,286046999.9,N
1597634375.9,286047002.7,P
1597634395.7,286047000.8,N
1597634415.6,286047002.4,N
1597634435.4,286047002.4,N
1597634455.2,286047002.8,P
1597634475.1,286046998.7,N
1597634476.0,286046998.7,N
1597634495.8,286046998.7,N
1597634515.6,286046999.2,N
1597634535.5,286046997.0,N
1597634555.3,286046998.8,N
1597634575.1,286046998.4,N
1597634595.9,286046998.9,N
1597634615.7,286046998.8,N
1597634635.5,286046999.0,N
1597634655.4,286046999.5,N
1597634675.2,286046998.2,N
1597634695.0,286046998.4,N
1597634695.9,286046998.4,N
1597634715.8,286046998.8,N
1597634735.6,286046999.4,N
1597634755.4,286046999.6,N
1597634775.3,286046998.1,N
1597634795.1,286046998.3,N
1597634815.8,286046998.7,N
1597634835.7,286046998.9,N
1597634855.5,286046998.4,N
1597634875.3,286046998.7,N
1597634895.2,286046999.0,N
1597634915.9,286046999.4,N
1597634935.7,286046999.0,N
1597634955.6,286046997.1,N
1597634975.4,286046999.4,N
1597634995.2,286047000.8,N
1597635015.1,286046998.8,N
1597635016.0,286046998.8,N
1597635035.8,286046998.6,N
1597635055.6,286046998.2,N
1597635075.5,286046999.2,N
1597635095.3,286046999.3,N
1597635115.1,286046999.3,N
1597635135.9,286046998.7,N
1597635155.7,286046998.5,N
1597635175.5,286046999.5,N
1597635195.4,286046999.4,N
1597635215.2,286046996.6,P
1597635235.0,286047000.8,N
1597635235.9,286047000.8,N
1597635255.8,286047000.4,N
1597635275.6,286047000.4,N
1597635295.4,286047000.8,N
1597635315.3,286047000.2,N
1597635335.1,286047000.9,N
1597635355.8,286046998.5,N
1597635375.7,286047000.3,N
1597635395.5,286047000.6,N
1597635415.3,286047000.9,N
1597635435.2,286047000.6,N
1597635455.9,286047000.7,N
1597635475.7,286047000.5,N
1597635495.6,286046999.9,N
1597635515.4,286047000.2,N
1597635535.2,286046999.8,N
1597635555.1,286047001.0,N
1597635556.0,286047001.0,N
1597635575.8,286047000.2,N
1597635595.6,286046999.8,N
1597635615.5,286047000.4,N
1597635635.3,286047002.3,N
1597635655.1,286047000.2,N
1597635675.9,286047000.4,N
1597635695.7,286047002.2,N
1597635715.5,286046999.7,N
1597635735.4,286047002.2,N
1597635755.2,286047002.6,N
1597635775.0,286046999.7,N
1597635775.9,286046999.7,N
1597635795.8,286046999.7,N
1597635815.6,286046999.9,N
1597635835.4,286046999.8,N
1597635855.3,286047000.2,N
1597635875.1,286047002.3,N
1597635895.8,286047002.6,N
1597635915.7,286046999.8,N
1597635935.5,286047002.4,N
1597635955.3,286047002.2,N
1597635975.2,286047002.8,N
1597635995.9,286047002.5,N
1597636015.7,286047002.3,N
1597636035.6,286047001.6,N
1597636055.4,286047002.1,N
1597636075.2,286046999.8,N
1597636095.1,286047002.1,N
1597636096.0,286047002.1,N
1597636115.8,286047002.8,N
1597636135.6,286047000.2,N
1597636155.5,286047001.3,N
1597636175.3,286047002.4,N
1597636195.1,286047002.3,N
1597636215.9,286047002.8,N
1597636235.7,286046999.8,N
1597636255.5,286047002.1,N
1597636275.4,286047000.1,N
1597636295.2,286047001.8,N
1597636315.0,286047002.8,N
1597636315.9,286047002.8,N
1597636335.8,286047000.0,N
1597636355.6,286047002.5,N
1597636375.4,286047002.3,N
1597636395.3,286047002.4,N
1597636415.1,286046999.7,N
1597636416.0,286046999.7,N
1597636435.8,286047001.3,N
1597636455.7,286047002.4,N
1597636475.5,286047002.3,N
1597636495.3,286047002.3,N
1597636515.2,286047002.2,N
1597636535.9,286047001.4,N
1597636555.7,286047001.7,N
1597636575.6,286047001.6,N
1597636595.4,286047002.8,N
1597636615.2,286047002.4,N
1597636635.1,286047001.9,N
1597636636.0,286047001.9,N
1597636655.8,286047002.7,N
1597636675.6,286047002.4,N
1597636695.5,286047001.9,N
1597636715.3,286047001.4,N
1597636735.1,286047002.3,N
1597636755.9,286047001.9,N
1597636775.7,286047001.9,N
1597636795.5,286047001.4,N
